FW6843 Weather Reports


time (UTC)temp
C
wind
direction
speed
KPH
gust
KPH
rain 1hr
cm
rain 24hr
cm
rain mn
cm
humidity
%
barometer
mb
20260507143054 15 0 0.0 0.0 0.00 0.00 0.00 86 1017.2
20260507141549 14 0 0.0 0.0 0.00 0.00 0.00 86 1017.0
20260507140037 13 0 0.0 4.8 0.00 0.00 0.00 90 1016.7
20260507134536 12 0 0.0 0.0 0.00 0.00 0.00 91 1016.6
20260507133104 12 0 0.0 1.6 0.00 0.00 0.00 91 1016.4
20260507131538 12 0 0.0 0.0 0.00 0.00 0.00 91 1016.3
20260507130048 12 0 0.0 0.0 0.00 0.00 0.00 91 1016.5
20260507124535 12 0 0.0 0.0 0.00 0.00 0.00 91 1016.3
20260507123040 12 0 0.0 3.2 0.00 0.00 0.00 90 1016.3
20260507121537 12 0 0.0 4.8 0.00 0.00 0.00 90 1016.1
20260507120039 12 0 0.0 1.6 0.00 0.00 0.00 89 1016.3
20260507114545 12 0 0.0 1.6 0.00 0.00 0.00 90 1016.2
20260507113038 12 0 0.0 0.0 0.00 0.00 0.00 90 1016.3
20260507111535 12 0 0.0 0.0 0.00 0.00 0.00 90 1016.5
20260507110041 12 0 0.0 0.0 0.00 0.00 0.00 90 1016.6
20260507104540 12 0 0.0 0.0 0.00 0.00 0.00 90 1016.6
20260507103044 12 0 0.0 0.0 0.00 0.00 0.00 90 1016.6
20260507101538 12 0 0.0 0.0 0.00 0.00 0.00 90 1016.6
20260507100038 12 0 0.0 1.6 0.00 0.00 0.00 89 1016.5
20260507094544 12 128 0.0 1.6 0.00 0.00 0.00 89 1016.7
20260507093036 12 0 0.0 1.6 0.00 0.00 0.00 89 1016.7
20260507091538 12 0 0.0 1.6 0.00 0.00 0.00 88 1017.1
20260507090036 12 0 0.0 1.6 0.00 0.00 0.00 88 1017.3
20260507084539 12 0 0.0 1.6 0.00 0.00 0.00 88 1017.6
20260507083035 13 0 0.0 0.0 0.00 0.00 0.00 89 1017.6
20260507081539 13 0 0.0 0.0 0.00 0.00 0.00 89 1017.7
20260507080039 13 0 0.0 0.0 0.00 0.00 0.00 88 1017.8
20260507074536 13 0 0.0 0.0 0.00 0.00 0.00 88 1017.5
20260507073035 13 0 0.0 0.0 0.00 0.00 0.00 87 1017.6
20260507071538 13 0 0.0 0.0 0.00 0.00 0.00 87 1017.6
20260507070049 13 0 0.0 0.0 0.00 0.00 0.00 86 1017.7
20260507064543 13 0 0.0 0.0 0.00 0.00 0.00 86 1017.8
20260507063039 13 0 0.0 0.0 0.00 0.00 0.00 86 1017.9
20260507061538 13 0 0.0 0.0 0.00 0.00 0.00 85 1017.8
20260507060037 13 0 0.0 0.0 0.00 0.00 0.00 85 1018.0
20260507054535 14 0 0.0 0.0 0.00 0.00 0.00 84 1017.9
20260507053035 14 0 0.0 0.0 0.00 0.00 0.00 84 1017.9
20260507051535 14 0 0.0 0.0 0.00 0.00 0.00 83 1017.9
20260507050039 14 0 0.0 0.0 0.00 0.00 0.00 82 1017.9
20260507044548 14 0 0.0 0.0 0.00 0.00 0.00 82 1018.0
20260507043036 15 0 0.0 0.0 0.00 0.00 0.00 82 1017.9
20260507041535 15 0 0.0 0.0 0.00 0.00 0.00 82 1017.8
20260507040042 15 0 0.0 0.0 0.00 0.00 0.00 81 1017.8
20260507034543 15 0 0.0 1.6 0.00 0.00 0.00 81 1017.6
20260507033048 15 0 0.0 4.8 0.00 0.00 0.00 80 1017.5
20260507031551 15 0 0.0 4.8 0.00 0.00 0.00 79 1017.5
20260507030042 16 0 0.0 1.6 0.00 0.00 0.00 79 1017.2
20260507024555 16 0 0.0 4.8 0.00 0.00 0.00 77 1016.9
20260507023036 17 0 0.0 4.8 0.00 0.00 0.00 75 1016.9
20260507021537 17 0 0.0 6.4 0.00 0.00 0.00 72 1016.8
20260507020047 18 317 1.6 9.7 0.00 0.00 0.00 70 1016.8
20260507014549 18 301 3.2 9.7 0.00 0.00 0.00 67 1016.7
20260507013040 19 0 1.6 12.9 0.00 0.00 0.00 67 1016.7
20260507011541 20 306 3.2 14.5 0.00 0.00 0.00 65 1016.7
20260507010042 20 303 3.2 12.9 0.00 0.00 0.00 66 1016.6
20260507004535 20 324 4.8 14.5 0.00 0.00 0.00 62 1016.5
20260507003039 21 339 1.6 16.1 0.00 0.00 0.00 64 1016.6
20260507001537 21 296 4.8 16.1 0.00 0.00 0.00 61 1016.4
20260507000037 22 0 3.2 14.5 0.00 0.00 0.00 59 1016.3
20260506234545 22 315 4.8 11.3 0.00 0.00 0.00 57 1016.3
20260506233039 22 296 4.8 14.5 0.00 0.00 0.00 57 1016.4
20260506231537 22 5 3.2 12.9 0.00 0.00 0.00 53 1016.4
20260506230038 22 298 3.2 16.1 0.00 0.00 0.00 56 1016.5
20260506224537 22 355 4.8 11.3 0.00 0.00 0.00 57 1016.6
20260506223035 22 340 4.8 12.9 0.00 0.00 0.00 56 1016.9
20260506221535 22 311 3.2 14.5 0.00 0.00 0.00 59 1017.0
20260506220042 22 293 3.2 14.5 0.00 0.00 0.00 61 1017.1
20260506214538 22 314 3.2 12.9 0.00 0.00 0.00 62 1017.3
20260506213038 22 267 4.8 12.9 0.00 0.00 0.00 62 1017.4
20260506211534 22 305 1.6 12.9 0.00 0.00 0.00 65 1017.6
20260506210036 22 355 4.8 14.5 0.00 0.00 0.00 65 1017.6
20260506204541 22 320 1.6 9.7 0.00 0.00 0.00 66 1017.7
20260506203040 21 300 1.6 14.5 0.00 0.00 0.00 67 1017.7
20260506201539 21 273 1.6 14.5 0.00 0.00 0.00 67 1018.0
20260506200039 21 295 3.2 9.7 0.00 0.00 0.00 67 1018.1
20260506194535 20 244 3.2 11.3 0.00 0.00 0.00 67 1018.3
20260506193037 20 246 3.2 9.7 0.00 0.00 0.00 68 1018.4
20260506191537 20 292 3.2 14.5 0.00 0.00 0.00 70 1018.6
20260506190039 20 324 3.2 11.3 0.00 0.00 0.00 71 1018.7
20260506184546 20 0 1.6 11.3 0.00 0.00 0.00 71 1018.7
20260506183039 20 300 0.0 9.7 0.00 0.00 0.00 70 1018.8
20260506181539 20 0 1.6 9.7 0.00 0.00 0.00 71 1019.1
20260506180037 20 344 1.6 9.7 0.00 0.00 0.00 71 1018.9
20260506174535 19 263 1.6 8.0 0.00 0.00 0.00 72 1018.9
20260506173052 18 294 0.0 11.3 0.00 0.00 0.00 72 1018.8
20260506171539 18 0 0.0 6.4 0.00 0.00 0.00 73 1019.0
20260506170041 17 0 0.0 6.4 0.00 0.00 0.00 73 1019.1
20260506164537 17 292 0.0 6.4 0.00 0.00 0.00 73 1019.2
20260506163042 17 346 1.6 6.4 0.00 0.00 0.00 73 1019.3
20260506161535 17 0 0.0 4.8 0.00 0.00 0.00 75 1019.2
20260506160046 16 0 0.0 3.2 0.00 0.00 0.00 78 1019.2
20260506154545 15 198 0.0 8.0 0.00 0.00 0.00 82 1019.0
20260506153035 16 0 0.0 1.6 0.00 0.00 0.00 80 1019.0
20260506151535 15 0 0.0 4.8 0.00 0.00 0.00 77 1019.0
20260506150035 14 135 3.2 9.7 0.00 0.00 0.00 78 1019.1
20260506144539 13 105 3.2 9.7 0.00 0.00 0.00 77 1019.0